Hourly Data Report for November 16, 2020

L'ASSOMPTION
QUEBEC
Current Station Operator: ECCC - MSC

45°48'34.000" N
73°26'05.000" W
21.00 m
7014160
71524
WEW

Download Data

Hourly Data (November 2020)
Hourly Data Report for November 16, 2020
TIME
LST
Temp Definition
°C
Dew Point Definition
°C
Rel Hum Definition
%
Precip. Amount Definition
mm

Wind Dir Definition
10's deg

Wind Spd Definition
km/h
Visibility Definition
km
Stn Press Definition
kPa
Hmdx Definition


Wind Chill Definition


Weather Definition


00:00 7.9 4.8 81 0.0 18 18   99.62     LegendNANA
01:00 8.0 4.2 77 0.0 18 19   99.61     LegendNANA
02:00 7.5 3.3 75 0.0 20 22   99.60     LegendNANA
03:00 5.9 2.5 79 1.0 22 26   99.68     LegendNANA
04:00 5.6 1.4 74 0.0 22 19   99.67     LegendNANA
05:00 5.9 -0.2 65 0.0 21 28   99.64     LegendNANA
06:00 5.5 -0.4 66 0.0 21 23   99.66     LegendNANA
07:00 6.0 -0.6 63 0.0 21 29   99.74     LegendNANA
08:00 6.0 -0.4 63 0.0 22 27   99.87     LegendNANA
09:00 6.2 0.0 65 0.0 23 28   99.92     LegendNANA
10:00 6.4 1.2 69 0.0 23 25   99.98     LegendNANA
11:00 6.7 1.0 67 0.0 24 29   100.05     LegendNANA
12:00 7.1 0.5 63 0.0 24 27   100.07     LegendNANA
13:00 6.7 1.8 70 0.0 25 19   100.11     LegendNANA
14:00 6.3 1.4 71 0.0 24 18   100.15     LegendNANA
15:00 3.7 2.1 89 0.7 27 22   100.26     LegendNANA
16:00 4.0 2.1 87 0.3 23 16   100.31     LegendNANA
17:00 4.3 0.9 78 0.0 23 17   100.37     LegendNANA
18:00 4.3 0.0 73 0.0 23 16   100.40     LegendNANA
19:00 3.9 -0.4 74 0.0 24 9   100.50     LegendNANA
20:00 3.2 -0.4 77 0.0 26 11   100.56     LegendNANA
21:00 3.8 -2.7 62 0.0 24 15   100.60     LegendNANA
22:00 2.5 -2.1 72 0.0 22 13   100.64     LegendNANA
23:00 1.6 -2.6 74 0.0 24 12   100.63     LegendNANA

Notes on Data Quality.

Legend

  • E = Estimated
  • M = Missing
  • NA = Not Available*
  • [empty] = Indicates an unobserved value
Date modified: